OPS 4682 DEB, 18675

Orbit data source: Space-Track

OPS 4682 DEB, 18675 is space debris in LEO originally from a launch on Sat, 03 Apr 1965 UTC launched from the Air Force Western Test Range (AFWTR). Debris objects in space refer to the collection of defunct objects orbiting the Earth. Examples of debris include non-operational satellites, rocket bodies, and fragments generated from explosions, collisions, or faulty payload assembly.

Loading next visibility...
Identifier
18675, 1965-027AH
Orbit
LEO
Country
Flag of USUS
Related business
Manufacturer
Unknown
Mission
Spacecraft
Bus & Motor
Unknown
Mass
Unknown
Launch date (UTC)
1965-04-03 (61 years ago)
Launch vehicle
Unknown
Launch site
Air Force Western Test Range (AFWTR)
Object type
Payload
Rocket body
Debris
Shape & HBR
Unknown shape, 0.1 m
Radar Cross Section
Medium (>0.1 m² and <1 m²)

Expand to show TLE details & history
Last TLE update: 18 hours ago

TLE from 18 hours ago
0 OPS 4682 DEB
1 18675U 65027AH  26150.53285126 -.00000170  00000-0 -58898-3 0  9994
2 18675  90.2388 354.0708 0025061 316.4706  71.4496 12.99893160856308
Epoch: 2026-05-30T12:47Z
TLE epoch observation values (Epoch: 2026-05-30T12:47:18.348Z)
Latitude
28.23159°
Longitude
-85.93074°
Altitude
1,259.936 km
Speed
7.231 km/s
True Right ascension
23h 35m 46s
True Declination
28° 05' 53"
Sunlit
Object was in daylight at epoch
Visualization orbit readout
Latitude
Unknown
Longitude
Unknown
Altitude
Unknown
Speed
Unknown
Apparent Right ascension
Unknown
Apparent Declination
Unknown
Sunlit
N/A
Visualization observer readout
Local Sidereal Time
16:15:41
Azimuth
Unknown
Elevation
Unknown
Doppler factor
Unknown
Orbital elements
Apogee altitude
1,278.773 km
Perigee altitude
1,240.491 km
Semi-major axis
7,637.769 km
Eccentricity
0.00251
Inclination
90.2388°
RAAN
354.0708°
Arg. of periapsis
316.4706°
True anomaly
71.72213°
Mean anomaly
71.4496°
Eccentric anomaly
71.58584°
Mean motion
3.25157 °/min
Orbital period
110.72 mins
BSTAR
-0.00058898
Loading maneuver chart data...
Computing Atmospheric mass density...
Loading historical data...
Loading historical data...
Loading historical data...
Loading historical data...
Loading historical data...
Loading historical data...
Loading historical data...

Documentation

Showing up to 5 results
|